User: anonymous   Login
Location: Bouchavesnes-Bergen
(49.9859°N, 2.9203°E)
Time: 10:40:42
(UTC+00:00)
Language:

ALOS - Orbit

View from above orbital plane
View from above orbital plane
View from above satellite
View from above satellite

Ground track
Ground track

The orbit data is extracted from the following two-line orbital elements,

1 28931U 06002A   21133.94637220  .00000243  00000-0  56190-4 0  9998
2 28931  97.8845 110.2059 0002213  97.5955 262.5501 14.62834965816017
Epoch (UTC): 13 May 2021 22:42:46
Eccentricity: 0.0002213
inclination: 97.8845°
perigee height: 682 km
apogee height: 685 km
right ascension of ascending node: 110.2059°
argument of perigee: 97.5955°
revolutions per day: 14.62834965
mean anomaly at epoch: 262.5501°
orbit number at epoch: 81601

The dashed part of the orbit path shows where the satellite is in the earth's shadow,  

DLR